Time,TemperatureF,DewpointF,PressureIn,WindDirection,WindDirectionDegrees,WindSpeedMPH,WindSpeedGustMPH,Humidity,HourlyPrecipIn,Conditions,Clouds,dailyrainin,SolarRadiationWatts/m^2,SoftwareType,DateUTC
2013-03-25 00:02:00,40.0,13.0,-100.00,WNW,294,1.0,2.0,33,-99.99,,,0.00,0.230000,,2013-03-25 07:02:00,
2013-03-25 00:12:00,40.0,13.0,-100.00,WNW,294,1.0,2.0,33,-99.99,,,0.00,0.230000,,2013-03-25 07:12:00,
2013-03-25 00:42:00,37.0,12.0,-100.00,WNW,293,1.0,2.0,35,-99.99,,,0.00,0.000000,,2013-03-25 07:42:00,
2013-03-25 00:52:00,37.0,12.0,-100.00,WNW,293,1.0,2.0,35,-99.99,,,0.00,0.000000,,2013-03-25 07:52:00,
2013-03-25 01:02:00,37.0,12.0,-100.00,WNW,293,1.0,2.0,35,-99.99,,,0.00,0.000000,,2013-03-25 08:02:00,
2013-03-25 01:11:00,37.0,12.0,-100.00,WNW,293,1.0,2.0,35,-99.99,,,0.00,0.000000,,2013-03-25 08:11:00,
2013-03-25 01:42:00,34.0,13.0,-100.00,South,171,0.0,1.0,41,-99.99,,,0.00,0.000000,,2013-03-25 08:42:00,
2013-03-25 01:52:00,34.0,13.0,-100.00,South,171,0.0,1.0,41,-99.99,,,0.00,0.000000,,2013-03-25 08:52:00,
2013-03-25 02:02:00,34.0,13.0,-100.00,South,171,0.0,1.0,41,-99.99,,,0.00,0.000000,,2013-03-25 09:02:00,
2013-03-25 02:11:00,34.0,13.0,-100.00,South,171,0.0,1.0,41,-99.99,,,0.00,0.000000,,2013-03-25 09:11:00,
2013-03-25 02:42:00,33.0,14.0,-100.00,ESE,113,1.0,4.0,43,-99.99,,,0.00,0.000000,,2013-03-25 09:42:00,
2013-03-25 02:52:00,33.0,14.0,-100.00,ESE,113,1.0,4.0,43,-99.99,,,0.00,0.000000,,2013-03-25 09:52:00,
2013-03-25 03:02:00,33.0,14.0,-100.00,ESE,113,1.0,4.0,43,-99.99,,,0.00,0.000000,,2013-03-25 10:02:00,
2013-03-25 03:12:00,33.0,14.0,-100.00,ESE,113,1.0,4.0,43,-99.99,,,0.00,0.000000,,2013-03-25 10:12:00,
2013-03-25 03:42:00,33.0,13.0,-100.00,SSE,161,3.0,4.0,43,-99.99,,,0.00,0.000000,,2013-03-25 10:42:00,
2013-03-25 03:53:00,33.0,13.0,-100.00,SSE,161,3.0,4.0,43,-99.99,,,0.00,0.000000,,2013-03-25 10:53:00,
2013-03-25 04:02:00,33.0,13.0,-100.00,SSE,161,3.0,4.0,43,-99.99,,,0.00,0.000000,,2013-03-25 11:02:00,
2013-03-25 04:12:00,33.0,13.0,-100.00,SSE,161,3.0,4.0,43,-99.99,,,0.00,0.000000,,2013-03-25 11:12:00,
2013-03-25 04:42:00,32.0,14.0,-100.00,SW,233,1.0,3.0,47,-99.99,,,0.00,0.000000,,2013-03-25 11:42:00,
2013-03-25 04:52:00,32.0,14.0,-100.00,SW,233,1.0,3.0,47,-99.99,,,0.00,0.000000,,2013-03-25 11:52:00,
2013-03-25 05:02:00,32.0,14.0,-100.00,SW,233,1.0,3.0,47,-99.99,,,0.00,0.000000,,2013-03-25 12:02:00,
2013-03-25 05:12:00,32.0,14.0,-100.00,SW,233,1.0,3.0,47,-99.99,,,0.00,0.000000,,2013-03-25 12:12:00,
2013-03-25 05:42:00,31.0,13.0,-100.00,ENE,77,0.0,2.0,46,-99.99,,,0.00,0.000000,,2013-03-25 12:42:00,
2013-03-25 05:53:00,31.0,13.0,-100.00,ENE,77,0.0,2.0,46,-99.99,,,0.00,0.000000,,2013-03-25 12:53:00,
2013-03-25 06:02:00,31.0,13.0,-100.00,ENE,77,0.0,2.0,46,-99.99,,,0.00,0.000000,,2013-03-25 13:02:00,
2013-03-25 06:12:00,31.0,13.0,-100.00,ENE,77,0.0,2.0,46,-99.99,,,0.00,0.000000,,2013-03-25 13:12:00,
2013-03-25 06:42:00,31.0,13.0,-100.00,WNW,302,1.0,2.0,48,-99.99,,,0.00,0.000000,,2013-03-25 13:42:00,
2013-03-25 06:52:00,31.0,13.0,-100.00,WNW,302,1.0,2.0,48,-99.99,,,0.00,0.000000,,2013-03-25 13:52:00,
2013-03-25 07:02:00,31.0,13.0,-100.00,WNW,302,1.0,2.0,48,-99.99,,,0.00,0.000000,,2013-03-25 14:02:00,
2013-03-25 07:12:00,31.0,13.0,-100.00,WNW,302,1.0,2.0,48,-99.99,,,0.00,0.000000,,2013-03-25 14:12:00,
2013-03-25 07:42:00,31.0,14.0,-100.00,SSE,156,0.0,1.0,48,-99.99,,,0.00,30.910000,,2013-03-25 14:42:00,
2013-03-25 07:53:00,31.0,14.0,-100.00,SSE,156,0.0,1.0,48,-99.99,,,0.00,30.910000,,2013-03-25 14:53:00,
2013-03-25 08:02:00,31.0,14.0,-100.00,SSE,156,0.0,1.0,48,-99.99,,,0.00,30.910000,,2013-03-25 15:02:00,
2013-03-25 08:12:00,31.0,14.0,-100.00,SSE,156,0.0,1.0,48,-99.99,,,0.00,30.910000,,2013-03-25 15:12:00,
2013-03-25 08:42:00,40.0,16.0,-100.00,West,267,0.0,2.0,37,-99.99,,,0.00,228.139999,,2013-03-25 15:42:00,
2013-03-25 08:53:00,40.0,16.0,-100.00,West,267,0.0,2.0,37,-99.99,,,0.00,228.139999,,2013-03-25 15:53:00,
2013-03-25 09:03:00,40.0,16.0,-100.00,West,267,0.0,2.0,37,-99.99,,,0.00,228.139999,,2013-03-25 16:03:00,
2013-03-25 09:12:00,40.0,16.0,-100.00,West,267,0.0,2.0,37,-99.99,,,0.00,228.139999,,2013-03-25 16:12:00,
2013-03-25 09:42:00,49.0,16.0,-100.00,SSE,167,1.0,3.0,26,-99.99,,,0.00,418.160004,,2013-03-25 16:42:00,
2013-03-25 09:53:00,49.0,16.0,-100.00,SSE,167,1.0,3.0,26,-99.99,,,0.00,418.160004,,2013-03-25 16:53:00,
2013-03-25 10:02:00,49.0,16.0,-100.00,SSE,167,1.0,3.0,26,-99.99,,,0.00,418.160004,,2013-03-25 17:02:00,
2013-03-25 10:12:00,49.0,16.0,-100.00,SSE,167,1.0,3.0,26,-99.99,,,0.00,418.160004,,2013-03-25 17:12:00,
2013-03-25 10:42:00,52.0,17.0,-100.00,West,276,2.0,5.0,24,-99.99,,,0.00,564.359985,,2013-03-25 17:42:00,
2013-03-25 10:53:00,52.0,17.0,-100.00,West,276,2.0,5.0,24,-99.99,,,0.00,564.359985,,2013-03-25 17:53:00,
2013-03-25 11:03:00,52.0,17.0,-100.00,West,276,2.0,5.0,24,-99.99,,,0.00,564.359985,,2013-03-25 18:03:00,
2013-03-25 11:12:00,52.0,17.0,-100.00,West,276,2.0,5.0,24,-99.99,,,0.00,564.359985,,2013-03-25 18:12:00,
2013-03-25 11:42:00,57.0,17.0,-100.00,SSE,168,3.0,8.0,20,-99.99,,,0.00,617.239990,,2013-03-25 18:42:00,
2013-03-25 11:53:00,57.0,17.0,-100.00,SSE,168,3.0,8.0,20,-99.99,,,0.00,617.239990,,2013-03-25 18:53:00,
2013-03-25 12:02:00,57.0,17.0,-100.00,SSE,168,3.0,8.0,20,-99.99,,,0.00,617.239990,,2013-03-25 19:02:00,
2013-03-25 12:12:00,57.0,17.0,-100.00,SSE,168,3.0,8.0,20,-99.99,,,0.00,617.239990,,2013-03-25 19:12:00,
2013-03-25 12:42:00,61.0,20.0,-100.00,SSE,160,3.0,8.0,20,-99.99,,,0.00,832.140015,,2013-03-25 19:42:00,
2013-03-25 12:52:00,61.0,20.0,-100.00,SSE,160,3.0,8.0,20,-99.99,,,0.00,832.140015,,2013-03-25 19:52:00,
2013-03-25 13:02:00,61.0,20.0,-100.00,SSE,160,3.0,8.0,20,-99.99,,,0.00,832.140015,,2013-03-25 20:02:00,
2013-03-25 13:12:00,61.0,20.0,-100.00,SSE,160,3.0,8.0,20,-99.99,,,0.00,832.140015,,2013-03-25 20:12:00,
2013-03-25 13:42:00,63.0,17.0,-100.00,SE,130,4.0,11.0,16,-99.99,,,0.00,877.460022,,2013-03-25 20:42:00,
2013-03-25 13:52:00,63.0,17.0,-100.00,SE,130,4.0,11.0,16,-99.99,,,0.00,877.460022,,2013-03-25 20:52:00,
2013-03-25 14:02:00,63.0,17.0,-100.00,SE,130,4.0,11.0,16,-99.99,,,0.00,877.460022,,2013-03-25 21:02:00,
2013-03-25 14:12:00,63.0,17.0,-100.00,SE,130,4.0,11.0,16,-99.99,,,0.00,877.460022,,2013-03-25 21:12:00,
2013-03-25 14:42:00,66.0,12.0,-100.00,South,181,4.0,8.0,11,-99.99,,,0.00,781.809998,,2013-03-25 21:42:00,
2013-03-25 14:52:00,66.0,12.0,-100.00,South,181,4.0,8.0,11,-99.99,,,0.00,781.809998,,2013-03-25 21:52:00,
2013-03-25 15:03:00,66.0,12.0,-100.00,South,181,4.0,8.0,11,-99.99,,,0.00,781.809998,,2013-03-25 22:03:00,
2013-03-25 15:12:00,66.0,12.0,-100.00,South,181,4.0,8.0,11,-99.99,,,0.00,781.809998,,2013-03-25 22:12:00,
2013-03-25 15:42:00,67.0,12.0,-100.00,ESE,115,3.0,6.0,11,-99.99,,,0.00,568.080017,,2013-03-25 22:42:00,
2013-03-25 15:52:00,67.0,12.0,-100.00,ESE,115,3.0,6.0,11,-99.99,,,0.00,568.080017,,2013-03-25 22:52:00,
2013-03-25 16:02:00,67.0,12.0,-100.00,ESE,115,3.0,6.0,11,-99.99,,,0.00,568.080017,,2013-03-25 23:02:00,
2013-03-25 16:12:00,67.0,12.0,-100.00,ESE,115,3.0,6.0,11,-99.99,,,0.00,568.080017,,2013-03-25 23:12:00,
2013-03-25 16:42:00,67.0,10.0,-100.00,SSW,195,4.0,10.0,10,-99.99,,,0.00,277.769989,,2013-03-25 23:42:00,
2013-03-25 16:52:00,67.0,10.0,-100.00,SSW,195,4.0,10.0,10,-99.99,,,0.00,277.769989,,2013-03-25 23:52:00,
2013-03-25 17:02:00,67.0,10.0,-100.00,SSW,195,4.0,10.0,10,-99.99,,,0.00,277.769989,,2013-03-26 00:02:00,
2013-03-25 17:11:00,67.0,10.0,-100.00,SSW,195,4.0,10.0,10,-99.99,,,0.00,277.769989,,2013-03-26 00:11:00,
2013-03-25 18:42:00,65.0,4.0,-100.00,WSW,258,11.0,18.0,8,-99.99,,,0.00,74.029999,,2013-03-26 01:42:00,
2013-03-25 18:52:00,65.0,4.0,-100.00,WSW,258,11.0,18.0,8,-99.99,,,0.00,74.029999,,2013-03-26 01:52:00,
2013-03-25 19:02:00,65.0,4.0,-100.00,WSW,258,11.0,18.0,8,-99.99,,,0.00,74.029999,,2013-03-26 02:02:00,
2013-03-25 19:11:00,65.0,4.0,-100.00,WSW,258,11.0,18.0,8,-99.99,,,0.00,74.029999,,2013-03-26 02:11:00,
2013-03-25 19:42:00,63.0,2.0,-100.00,West,259,10.0,18.0,8,-99.99,,,0.00,7.900000,,2013-03-26 02:42:00,
2013-03-25 19:52:00,63.0,2.0,-100.00,West,259,10.0,18.0,8,-99.99,,,0.00,7.900000,,2013-03-26 02:52:00,
2013-03-25 20:02:00,63.0,2.0,-100.00,West,259,10.0,18.0,8,-99.99,,,0.00,7.900000,,2013-03-26 03:02:00,
2013-03-25 20:12:00,63.0,2.0,-100.00,West,259,10.0,18.0,8,-99.99,,,0.00,7.900000,,2013-03-26 03:12:00,
2013-03-25 20:42:00,59.0,5.0,-100.00,West,277,6.0,9.0,11,-99.99,,,0.00,0.000000,,2013-03-26 03:42:00,
2013-03-25 20:53:00,59.0,5.0,-100.00,West,277,6.0,9.0,11,-99.99,,,0.00,0.000000,,2013-03-26 03:53:00,
2013-03-25 21:03:00,59.0,5.0,-100.00,West,277,6.0,9.0,11,-99.99,,,0.00,0.000000,,2013-03-26 04:03:00,
2013-03-25 21:12:00,59.0,5.0,-100.00,West,277,6.0,9.0,11,-99.99,,,0.00,0.000000,,2013-03-26 04:12:00,
2013-03-25 21:43:00,58.0,10.0,-100.00,WNW,296,5.0,10.0,14,-99.99,,,0.00,0.000000,,2013-03-26 04:43:00,
2013-03-25 21:52:00,58.0,10.0,-100.00,WNW,296,5.0,10.0,14,-99.99,,,0.00,0.000000,,2013-03-26 04:52:00,
2013-03-25 22:02:00,58.0,10.0,-100.00,WNW,296,5.0,10.0,14,-99.99,,,0.00,0.000000,,2013-03-26 05:02:00,
2013-03-25 22:12:00,58.0,10.0,-100.00,WNW,296,5.0,10.0,14,-99.99,,,0.00,0.000000,,2013-03-26 05:12:00,
2013-03-25 22:42:00,57.0,17.0,-100.00,WNW,289,5.0,10.0,20,-99.99,,,0.00,0.000000,,2013-03-26 05:42:00,
2013-03-25 22:52:00,57.0,17.0,-100.00,WNW,289,5.0,10.0,20,-99.99,,,0.00,0.000000,,2013-03-26 05:52:00,
2013-03-25 23:02:00,57.0,17.0,-100.00,WNW,289,5.0,10.0,20,-99.99,,,0.00,0.000000,,2013-03-26 06:02:00,
2013-03-25 23:12:00,57.0,17.0,-100.00,WNW,289,5.0,10.0,20,-99.99,,,0.00,0.000000,,2013-03-26 06:12:00,
2013-03-25 23:42:00,56.0,18.0,-100.00,WNW,302,2.0,4.0,22,-99.99,,,0.00,0.000000,,2013-03-26 06:42:00,
2013-03-25 23:52:00,56.0,18.0,-100.00,WNW,302,2.0,4.0,22,-99.99,,,0.00,0.000000,,2013-03-26 06:52:00,